Jilin-1 GaoFen 03C 02 xing

operational
NORAD ID: 46461 Int'l Des: NNA 2020-065 Owner: CGSTL Country: CN Constellation: jilin-1
LEOCIRCULARRETROGRADESSO

Jilin-1 GaoFen 03C 02 xingについて

説明を読み込み中...

リアルタイム位置

3D地球を読み込み中...

次回通過

高度履歴

Altitude vs Time

uPlot chart will show altitude changes over time

軌道要素

1 46461U 20065H 26063.61939345 .00120057 00000-0 10345-2 0 9991
2 46461 97.2432 120.3522 0011489 109.1853 251.0653 15.68823543303806
Epoch: Mar 4, 2026 • Age: 23 hours

現在のステータス

高度 360.0 km
速度 7.70 km/s
衛星直下点 19.20°N, 152.5°E
打ち上げ日 Sep 15, 2020
運用期間 5.4 years
タイプ earth observation

技術仕様

分類 Payload
質量 42.00 kg
乾燥質量 42.00 kg
総質量 42.00 kg
長さ 1.50 m
直径 1.00 m
スパン 1.50 m
形状 Box
製造者 CGSTL
バスタイプ JL-1
フェーズステータス In Orbit
所有者/国 CGSTL/CN

大規模コンステレーション

Loading constellations...